Location: Voyageurs National Park
(48.5020°N, 92.9292°W)
Time: 10:41:58
(UTC-05:00)

Cosmos 1500 Rocket - Pass Details

Date: 19 January 2018
Orbit: 603 x 632 km, 82.5° (Epoch: 23 May)

Event Time Altitude Azimuth Distance (km) Brightness Sun altitude
Rises 06:29:35 0° 349° (N) 2,923 6.8 -13.9°
Reaches altitude 10° 06:31:50 10° 349° (N) 2,007 5.9 -13.5°
Maximum altitude 06:36:17 82° 263° (W) 633 3.5 -12.8°
Drops below altitude 10° 06:40:40 10° 175° (S) 1,972 6.4 -12.1°
Sets 06:42:52 0° 175° (S) 2,868 7.3 -11.8°
